This demonstration page uses our WeatherBlox Daily Observations layout. Learn more.

Left ArrowRight Arrow

39.92423, -83.80882

Hourly Observations for July 23, 2019

Temp ( °F °C ) Dew Point ( °F °C ) Humidity (%) Winds ( mph kmh ) Pressure ( in mb ) Visibility ( mi km ) Precip ( " mm )
12:56 am 00:56 Cloudy 66 18.9 64 17.8 93 93 NNW 3 6 30.00 1016 10 16 N/A
1:56 am 01:56 Cloudy 65 18.3 62 16.7 90 90 NNW 6 9 30.01 1016 10 16 N/A
2:56 am 02:56 Partly Cloudy 62 16.7 60 15.6 93 93 NW 5 7 30.01 1016 10 16 N/A
3:56 am 03:56 Mostly Clear 60 15.6 59 15 96 96 NNW 6 9 30.01 1016 10 16 N/A
4:56 am 04:56 Clear 59 15 59 15 100 100 N 7 11 30.01 1016 10 16 N/A
5:56 am 05:56 Clear 57 13.9 57 13.9 100 100 NW 5 7 30.02 1017 10 16 N/A
6:31 am 06:31 Sunny with Fog 57 14 57 14 100 100 NNW 5 7 30.03 1017 0 0 N/A
6:41 am 06:41 Sunny with Mist and Fog 57 14 57 14 100 100 NW 5 7 30.04 1017 1 2 N/A
6:51 am 06:51 Sunny 57 14 57 14 100 100 WNW 5 7 30.04 1017 10 16 N/A
6:56 am 06:56 Sunny 57 13.9 57 13.9 100 100 WNW 3 6 30.03 1017 10 16 N/A
7:56 am 07:56 Sunny 61 16.1 60 15.6 97 97 N 8 13 30.04 1017 10 16 N/A
8:56 am 08:56 Sunny 66 18.9 59 15 78 78 N 8 13 30.05 1018 10 16 N/A
9:56 am 09:56 Sunny 70 21.1 56 13.3 61 61 N 12 19 30.05 1018 10 16 N/A
10:56 am 10:56 Sunny 72 22.2 57 13.9 59 59 N 7 11 30.06 1018 10 16 N/A
11:56 am 11:56 Partly Cloudy 74 23.3 53 11.7 48 48 NNW 9 15 30.06 1018 10 16 N/A
12:56 pm 12:56 Mostly Cloudy 75 23.9 54 12.2 48 48 NNW 8 13 30.05 1018 10 16 N/A
1:56 pm 13:56 Partly Cloudy 75 23.9 55 12.8 50 50 NNW 17 28 30.04 1017 10 16 N/A
2:56 pm 14:56 Mostly Cloudy 75 23.9 56 13.3 52 52 NNW 10 17 30.03 1017 10 16 N/A
3:56 pm 15:56 Mostly Cloudy 78 25.6 57 13.9 48 48 N 12 19 30.02 1017 10 16 N/A
4:56 pm 16:56 Mostly Sunny 77 25 57 13.9 50 50 NW 13 20 30.01 1016 10 16 N/A
5:56 pm 17:56 Mostly Cloudy 76 24.4 54 12.2 47 47 NW 13 20 30.01 1016 10 16 N/A
6:56 pm 18:56 Partly Cloudy 74 23.3 57 13.9 56 56 NW 7 11 30.01 1016 10 16 N/A
7:56 pm 19:56 Sunny 73 22.8 53 11.7 50 50 N 10 17 30.02 1017 10 16 N/A
8:56 pm 20:56 Sunny 67 19.4 53 11.7 61 61 N 6 9 30.03 1017 10 16 N/A
9:56 pm 21:56 Clear 65 18.3 54 12.2 68 68 N N/A 30.04 1017 10 16 N/A
10:56 pm 22:56 Clear 61 16.1 57 13.9 87 87 WNW 3 6 30.05 1018 10 16 N/A
11:56 pm 23:56 Clear 60 15.6 57 13.9 90 90 N N/A 30.05 1018 10 16 N/A

Powered by AerisWeather